Flight Track Log - Related Links

Times and Time Zones

All times are in EDT time to prevent confusion due to time zone crossing. See the JUS327 flight status page for this flight to view local times or setup timezone preferences in your user account.

Time Position Orientation Groundspeed Altitude Reporting Facility
EDT Latitude Longitude Course Direction KTS MPH feet Rate Location/Type
06:26PM 42.2508 -83.5539 318° Northwest 130 150 1,900  Level Cleveland Center
06:27PM 42.2872 -83.5978 318° Northwest 184 212 3,400 1,707 Climbing Cleveland Center
06:28PM 42.3231 -83.6583 309° West 224 258 5,400 2,056 Climbing Cleveland Center
06:28PM 42.3425 -83.7128 296° West 244 281 7,100 2,860 Climbing Cleveland Center
06:29PM 42.3483 -83.8058 275° West 252 290 10,500 2,867 Climbing Cleveland Center
06:31PM 42.3922 -84.0189 286° West 283 326 15,700 2,600 Climbing Cleveland Center
06:32PM 42.4139 -84.1297 285° West 298 343 18,300 2,600 Climbing Cleveland Center
06:33PM 42.4183 -84.2483 273° West 307 353 20,900 2,277 Climbing Cleveland Center
06:35PM 42.4306 -84.4594 275° West 337 388 24,600 2,036 Climbing Chicago Center
06:36PM 42.4397 -84.6133 275° West 344 396 26,600 1,742 Climbing Chicago Center
06:37PM 42.4419 -84.7497 271° West 359 413 28,200 1,597 Climbing Chicago Center
06:38PM 42.4492 -84.8897 274° West 370 426 29,900 1,500 Climbing Chicago Center
06:39PM 42.4556 -85.0317 274° West 377 434 31,300 1,306 Climbing Chicago Center
06:40PM 42.4553 -85.1775 270° West 384 442 32,600 1,113 Climbing Chicago Center
06:41PM 42.4581 -85.3261 272° West 392 451 33,600 677 Climbing Chicago Center
06:42PM 42.4619 -85.5100 272° West 402 463 34,000 194 Climbing Chicago Center
06:44PM 42.4639 -85.6592 271° West 397 457 34,000  Level Chicago Center
06:45PM 42.4625 -85.8100 269° West 399 459 34,000  Level Chicago Center
06:46PM 42.4628 -85.9603 270° West 400 460 34,000  Level Chicago Center
06:47PM 42.4239 -86.0953 249° West 398 458 34,000  Level Chicago Center
06:48PM 42.3681 -86.2189 239° Southwest 388 447 34,000  Level Chicago Center
06:49PM 42.3206 -86.3494 244° Southwest 388 447 34,000  Level Chicago Center
06:50PM 42.2756 -86.4914 247° West 388 447 34,000  Level Chicago Center
06:51PM 42.2242 -86.6522 247° West 391 450 34,000  Level Chicago Center
06:52PM 42.1861 -86.7681 246° West 390 449 34,000  Level Chicago Center
06:53PM 42.1292 -86.9239 244° Southwest 391 450 34,000  Level Chicago Center
06:54PM 42.0839 -87.0567 245° Southwest 393 452 34,000  Level Chicago Center
06:55PM 42.0392 -87.1900 246° West 393 452 34,000  Level Chicago Center
06:56PM 41.9936 -87.3236 245° Southwest 396 456 34,000  Level Chicago Center
06:57PM 41.9458 -87.4553 244° Southwest 394 453 34,000  Level Chicago Center
06:58PM 41.8886 -87.6136 244° Southwest 396 456 34,000  Level Chicago Center
06:59PM 41.8411 -87.7467 244° Southwest 400 460 34,000  Level Chicago Center
07:00PM 41.7939 -87.8786 244° Southwest 398 458 34,000  Level Chicago Center
07:01PM 41.7467 -88.0094 244° Southwest 396 456 34,000  Level Chicago Center
07:02PM 41.6908 -88.1681 245° Southwest 397 457 34,000  Level Chicago Center
07:03PM 41.6431 -88.2997 244° Southwest 400 460 34,000  Level Chicago Center
07:04PM 41.5953 -88.4314 244° Southwest 400 460 34,000  Level Chicago Center
07:05PM 41.5464 -88.5631 244° Southwest 400 460 34,000  Level Chicago Center
07:06PM 41.5100 -88.7022 251° West 401 461 34,000  Level Chicago Center
07:07PM 41.4758 -88.8742 255° West 403 464 34,000  Level Chicago Center
07:08PM 41.4386 -89.0139 250° West 403 464 34,000  Level Chicago Center
07:09PM 41.3981 -89.1533 249° West 406 467 34,000  Level Chicago Center
07:10PM 41.3656 -89.2864 252° West 405 466 34,000  Level Chicago Center
07:11PM 41.3225 -89.4572 251° West 407 468 34,000  Level Chicago Center
07:12PM 41.2844 -89.5983 250° West 407 468 34,000  Level Chicago Center
07:14PM 41.2467 -89.7403 251° West 409 471 34,000  Level Chicago Center
07:15PM 41.2086 -89.8819 250° West 410 472 34,000  Level Chicago Center
07:16PM 41.1714 -90.0239 251° West 411 473 34,000  Level Chicago Center
07:17PM 41.1256 -90.1942 250° West 411 473 34,000  Level Chicago Center
07:18PM 41.0858 -90.3383 250° West 418 481 34,000  Level Chicago Center
07:19PM 41.0469 -90.4797 250° West 415 478 34,000  Level Chicago Center
07:20PM 41.0081 -90.6194 250° West 409 471 34,000  Level Chicago Center
07:21PM 40.9661 -90.7578 248° West 407 468 34,000  Level Chicago Center
07:22PM 40.9203 -90.9256 250° West 407 468 34,000  Level Chicago Center
07:23PM 40.8847 -91.0653 251° West 404 465 34,000  Level Chicago Center
07:24PM 40.8447 -91.2047 249° West 406 467 34,000  Level Chicago Center
07:25PM 40.8064 -91.3406 250° West 406 467 34,000  Level Chicago Center
07:26PM 40.7683 -91.4789 250° West 406 467 34,000  Level Chicago Center
07:27PM 40.7197 -91.6422 249° West 404 465 34,000  Level Chicago Center
07:28PM 40.6808 -91.7803 250° West 405 466 34,000  Level Chicago Center
07:29PM 40.6411 -91.9169 249° West 404 465 34,000  Level Chicago Center
07:30PM 40.6086 -92.0256 249° West 404 465 34,000  Level Kansas City Center
07:31PM 40.5689 -92.1642 249° West 406 467 34,000  Level Kansas City Center
07:32PM 40.5231 -92.3283 250° West 405 466 34,000  Level Kansas City Center
07:33PM 40.4867 -92.4503 249° West 407 468 34,000  Level Kansas City Center
07:34PM 40.4364 -92.6156 248° West 407 468 34,000  Level Kansas City Center
07:35PM 40.3936 -92.7581 249° West 405 466 34,000  Level Kansas City Center
07:36PM 40.3525 -92.8900 248° West 407 468 34,000  Level Kansas City Center
07:37PM 40.3006 -93.0439 246° West 411 473 34,000  Level Kansas City Center
07:38PM 40.2661 -93.1706 250° West 413 475 34,000  Level Kansas City Center
07:39PM 40.2258 -93.3100 249° West 413 475 34,000  Level Kansas City Center
07:40PM 40.1742 -93.4756 248° West 414 476 34,000  Level Kansas City Center
07:41PM 40.1319 -93.6153 248° West 416 479 34,000  Level Kansas City Center
07:42PM 40.0886 -93.7556 248° West 418 481 34,000  Level Kansas City Center
07:43PM 40.0467 -93.8950 249° West 418 481 34,000  Level Kansas City Center
07:44PM 40.0017 -94.0333 247° West 418 481 34,000  Level Kansas City Center
07:45PM 39.9533 -94.1867 248° West 418 481 34,000  Level Kansas City Center
07:46PM 39.9042 -94.3444 248° West 421 484 34,000  Level Kansas City Center
07:47PM 39.8622 -94.4794 248° West 420 483 34,000  Level Kansas City Center
07:49PM 39.8114 -94.6386 247° West 426 490 34,000  Level Kansas City Center
07:50PM 39.7686 -94.7736 248° West 424 488 34,000  Level Kansas City Center
07:51PM 39.7178 -94.9319 247° West 426 490 34,000  Level Kansas City Center
07:52PM 39.6744 -95.0667 247° West 426 490 34,000  Level Kansas City Center
07:53PM 39.6236 -95.2242 247° West 427 491 34,000  Level Kansas City Center
07:54PM 39.5794 -95.3594 247° West 428 493 34,000  Level Kansas City Center
07:55PM 39.5269 -95.5172 247° West 430 495 34,000 -435 Level Kansas City Center
07:56PM 39.4825 -95.6522 247° West 430 495 33,100 -1,887 Descending Kansas City Center
07:57PM 39.4292 -95.8125 247° West 435 501 30,100 -2,661 Descending Kansas City Center
07:58PM 39.3867 -95.9492 248° West 429 494 27,600 -2,371 Descending Kansas City Center
07:59PM 39.3342 -96.0992 246° West 410 472 25,200 -1,597 Descending Kansas City Center
08:00PM 39.2869 -96.2261 244° Southwest 400 460 24,300 -1,500 Descending Kansas City Center
08:01PM 39.2358 -96.3692 245° Southwest 403 464 22,100 -2,129 Descending Kansas City Center
08:02PM 39.1997 -96.4911 249° West 385 443 19,900 -2,323 Descending Kansas City Center
08:03PM 39.1578 -96.6269 248° West 368 423 17,300 -2,129 Descending Kansas City Center
08:04PM 39.1106 -96.7439 243° Southwest 378 435 15,500 -1,984 Descending Kansas City Center
08:05PM 39.0700 -96.8725 248° West 356 410 13,200 -1,839 Descending Kansas City Center
08:06PM 39.0297 -96.9903 246° West 349 402 11,700 -1,306 Descending Kansas City Center
08:07PM 38.9878 -97.1056 245° Southwest 343 395 10,500 -919 Descending Kansas City Center
08:08PM 38.9503 -97.1994 243° Southwest 286 329 9,800 -823 Descending Kansas City Center
08:09PM 38.9242 -97.2761 246° West 247 284 8,800 -1,161 Descending Kansas City Center
08:10PM 38.8956 -97.3578 246° West 241 277 7,400 -1,355 Descending Kansas City Center
08:11PM 38.8711 -97.4294 246° West 214 246 6,000 -1,258 Descending Kansas City Center
08:12PM 38.8469 -97.4981 246° West 203 234 4,800 -1,113 Descending Kansas City Center
08:13PM 38.8156 -97.5517 233° Southwest 195 224 3,700 -968 Descending Kansas City Center
08:14PM 38.7586 -97.5578 185° South 195 224 2,800 -484 Descending Kansas City Center
08:15PM 38.7256 -97.5778 205° Southwest 165 190 2,700 -242 Descending Kansas City Center
08:16PM 38.7256 -97.6328 270° West 151 174 2,300 -484 Descending Kansas City Center
08:17PM 38.7528 -97.6461 339° North 132 152 1,700 -581 Descending Kansas City Center

Login

Don't have an account? Register now (free) for customized features, flight alerts, and more!